KF0EZB Weather Reports


Display with metric or nautical units.
time (UTC)temp
F
wind
direction
speed
MPH
gust
MPH
rain 1hr
in
rain 24hr
in
rain mn
in
humidity
%
barometer
mb
20260506211350 56 271 4.0 6.0 0.00 0.22 0.22 57 1018.9
20260506210848 56 94 1.0 3.0 0.00 0.22 0.22 58 1018.9
20260506210344 57 208 2.0 3.0 0.00 0.22 0.22 57 1018.9
20260506205842 56 214 1.0 3.0 0.00 0.22 0.22 62 1018.9
20260506205338 58 307 3.0 7.0 0.00 0.22 0.22 58 1019.2
20260506204834 55 143 1.0 2.0 0.00 0.22 0.22 60 1019.0
20260506204332 55 79 1.0 3.0 0.00 0.22 0.22 62 1019.2
20260506203829 55 120 1.0 2.0 0.00 0.22 0.22 62 1019.1
20260506203326 57 153 3.0 3.0 0.00 0.22 0.22 60 1019.3
20260506202823 56 94 3.0 3.0 0.00 0.22 0.22 64 1019.4
20260506202320 55 261 1.0 5.0 0.00 0.22 0.22 61 1019.4
20260506201816 55 185 2.0 3.0 0.00 0.22 0.22 64 1019.4
20260506201315 54 270 3.0 5.0 0.00 0.22 0.22 67 1019.5
20260506200811 55 306 5.0 6.0 0.00 0.22 0.22 65 1019.6
20260506200307 54 145 0.0 3.0 0.00 0.22 0.22 64 1019.7
20260506195803 53 255 2.0 3.0 0.00 0.22 0.22 68 1019.7
20260506195300 53 47 3.0 6.0 0.00 0.22 0.22 66 1019.7
20260506194758 52 307 2.0 6.0 0.00 0.22 0.22 69 1019.5
20260506194254 53 163 2.0 3.0 0.00 0.22 0.22 70 1019.7
20260506193752 51 68 2.0 5.0 0.00 0.22 0.22 71 1019.6
20260506193248 53 250 1.0 6.0 0.00 0.22 0.22 70 1019.9
20260506192744 53 170 0.0 3.0 0.00 0.22 0.22 69 1019.7
20260506192241 53 144 0.0 1.0 0.00 0.22 0.22 67 1019.8
20260506191738 53 135 0.0 1.0 0.00 0.22 0.22 68 1019.8
20260506191235 52 160 1.0 3.0 0.00 0.22 0.22 66 1019.8
20260506190732 53 352 0.0 5.0 0.00 0.22 0.22 68 1019.8
20260506190228 52 350 1.0 1.0 0.00 0.22 0.22 70 1019.9
20260506185725 51 271 0.0 2.0 0.00 0.22 0.22 69 1019.8
20260506185221 52 274 2.0 2.0 0.00 0.22 0.22 70 1020.1
20260506184719 52 277 3.0 3.0 0.00 0.22 0.22 73 1020.2
20260506184216 51 293 2.0 3.0 0.00 0.22 0.22 73 1019.9
20260506183713 52 110 2.0 3.0 0.00 0.22 0.22 70 1020.2
20260506183209 51 134 1.0 1.0 0.00 0.22 0.22 72 1019.9
20260506182706 52 58 2.0 5.0 0.00 0.22 0.22 71 1020.2
20260506182203 51 120 1.0 2.0 0.00 0.22 0.22 74 1020.0
20260506181701 51 70 2.0 3.0 0.00 0.22 0.22 75 1020.1
20260506181158 51 42 5.0 7.0 0.00 0.22 0.22 76 1019.9
20260506180655 50 104 0.0 2.0 0.00 0.22 0.22 78 1020.3
20260506180151 50 94 3.0 3.0 0.00 0.22 0.22 78 1020.1
20260506175648 50 131 0.0 3.0 0.00 0.22 0.22 80 1020.1
20260506175145 50 89 2.0 5.0 0.00 0.22 0.22 78 1020.2
20260506174638 50 72 2.0 3.0 0.00 0.22 0.22 78 1020.1
20260506174134 51 98 3.0 3.0 0.00 0.22 0.22 79 1020.2
20260506173631 50 64 3.0 5.0 0.00 0.22 0.22 80 1020.1
20260506173129 50 67 1.0 3.0 0.00 0.22 0.22 81 1020.1
20260506172626 50 73 3.0 6.0 0.00 0.22 0.22 83 1020.3
20260506172121 49 99 0.0 2.0 0.00 0.22 0.22 84 1020.2
20260506171620 48 71 2.0 2.0 0.00 0.22 0.22 84 1020.2
20260506171117 48 107 1.0 5.0 0.00 0.22 0.22 84 1020.3
20260506170615 47 99 3.0 5.0 0.00 0.22 0.22 84 1020.3
20260506170111 47 102 1.0 3.0 0.00 0.22 0.22 83 1020.6
20260506165610 48 89 1.0 3.0 0.00 0.22 0.22 84 1020.8
20260506165106 47 107 2.0 5.0 0.00 0.22 0.22 84 1020.7
20260506164603 47 99 1.0 5.0 0.00 0.22 0.22 84 1020.6
20260506164100 47 88 3.0 3.0 0.00 0.22 0.22 85 1020.3
20260506163555 47 110 0.0 0.0 0.00 0.22 0.22 86 1020.4
20260506163051 47 107 0.0 8.0 0.00 0.22 0.22 88 1020.6
20260506162547 46 99 0.0 1.0 0.00 0.22 0.22 91 1020.2
20260506162039 46 100 4.0 7.0 0.00 0.22 0.22 93 1020.2
20260506161536 46 93 6.0 8.0 0.00 0.22 0.22 95 1020.2
20260506161028 45 84 4.0 7.0 0.00 0.22 0.22 97 1020.0
20260506160526 44 80 5.0 10.0 0.00 0.22 0.22 98 1020.0
20260506160023 44 107 3.0 6.0 0.00 0.22 0.22 98 1020.1
20260506155521 44 91 2.0 3.0 0.00 0.22 0.22 98 1020.1
20260506153658 43 99 0.0 0.0 0.00 0.22 0.22 99 1020.1
20260506153155 44 100 0.0 2.0 0.00 0.22 0.22 99 1020.2
20260506152652 43 105 0.0 2.0 0.00 0.22 0.22 99 1020.1
20260506152149 42 55 1.0 3.0 0.00 0.22 0.22 99 1020.1
20260506151648 42 47 1.0 3.0 0.00 0.22 0.22 99 1020.0
20260506151144 43 81 0.0 3.0 0.00 0.22 0.22 99 1020.0
20260506150641 43 76 0.0 0.0 0.00 0.22 0.22 99 1020.1
20260506150138 42 93 0.0 0.0 0.07 0.22 0.22 99 1020.0
20260506145635 42 68 0.0 0.0 0.07 0.22 0.22 99 1020.1
20260506145132 43 88 0.0 3.0 0.00 0.21 0.21 99 1020.2
20260506144630 42 68 0.0 0.0 0.00 0.21 0.21 99 1020.0
20260506144126 43 106 0.0 0.0 0.00 0.21 0.21 99 1019.9
20260506143624 42 87 0.0 2.0 0.00 0.21 0.21 99 1019.8
20260506143122 42 27 1.0 3.0 0.00 0.21 0.21 99 1020.1
20260506142620 42 36 1.0 3.0 0.00 0.21 0.21 99 1020.0
20260506142118 42 56 1.0 3.0 0.00 0.21 0.21 99 1019.9
20260506141615 42 32 3.0 6.0 0.00 0.21 0.21 99 1019.9
20260506141113 42 92 0.0 0.0 0.00 0.21 0.21 99 1019.9
20260506140610 42 89 0.0 0.0 0.00 0.21 0.21 99 1019.8
20260506140107 42 78 0.0 0.0 0.00 0.21 0.21 99 1019.7
20260506135604 42 76 0.0 0.0 0.05 0.21 0.21 99 1019.6
20260506135100 43 81 0.0 0.0 0.05 0.21 0.21 99 1019.7
20260506134557 42 74 0.0 1.0 0.00 0.20 0.20 99 1019.7
20260506134053 42 39 0.0 1.0 0.00 0.20 0.20 99 1019.5
20260506133550 42 74 0.0 0.0 0.00 0.20 0.20 99 1019.6
20260506133047 43 75 0.0 0.0 0.00 0.20 0.20 99 1019.5
20260506132544 43 70 0.0 0.0 0.07 0.20 0.20 99 1019.2
20260506132042 42 65 0.0 0.0 0.07 0.20 0.20 99 1019.1
20260506131538 42 63 0.0 0.0 0.00 0.19 0.19 99 1019.1
20260506131035 42 63 0.0 0.0 0.00 0.19 0.19 99 1019.0
20260506130532 42 62 0.0 0.0 0.00 0.19 0.19 99 1018.9
20260506130029 42 62 0.0 0.0 0.00 0.19 0.19 99 1018.7
20260506125528 42 61 0.0 0.0 0.00 0.19 0.19 99 1018.7
20260506125025 42 60 0.0 0.0 0.00 0.19 0.19 99 1018.7
20260506124523 42 65 0.0 0.0 0.00 0.19 0.19 99 1018.9
20260506124020 42 61 0.0 0.0 0.00 0.19 0.19 99 1018.6
20260506123518 42 79 0.0 0.0 0.00 0.19 0.19 99 1018.2
20260506123016 42 75 0.0 0.0 0.00 0.19 0.19 99 1018.2
20260506122512 42 73 0.0 0.0 0.00 0.19 0.19 99 1018.2
20260506122011 43 79 0.0 0.0 0.00 0.19 0.19 99 1018.2
20260506121508 43 78 0.0 0.0 0.00 0.19 0.19 99 1018.0
20260506121004 43 77 0.0 0.0 0.00 0.19 0.19 99 1018.0
20260506120502 43 77 0.0 0.0 0.00 0.19 0.19 99 1018.0
20260506115959 43 77 0.0 0.0 0.00 0.19 0.19 99 1018.0
20260506115457 43 77 0.0 0.0 0.00 0.19 0.19 99 1018.1
20260506114955 43 70 0.0 0.0 0.00 0.19 0.19 99 1017.8
20260506114452 43 63 0.0 0.0 0.00 0.19 0.19 99 1017.6
20260506113951 43 61 0.0 0.0 0.00 0.19 0.19 99 1017.1
20260506113448 43 58 0.0 0.0 0.07 0.19 0.19 99 1017.4
20260506112944 43 56 0.0 0.0 0.00 0.18 0.18 99 1017.5
20260506112442 43 91 0.0 0.0 0.00 0.18 0.18 99 1017.5
20260506111939 43 85 0.0 0.0 0.00 0.18 0.18 99 1017.2
20260506111437 43 71 0.0 0.0 0.00 0.18 0.18 99 1017.2
20260506110934 43 121 0.0 0.0 0.00 0.18 0.18 99 1017.2
20260506110432 43 117 0.0 0.0 0.05 0.18 0.18 99 1016.9
20260506105928 43 113 0.0 0.0 0.05 0.18 0.18 99 1016.6
20260506105424 43 101 0.0 0.0 0.00 0.17 0.17 99 1016.8
20260506104922 43 102 0.0 0.0 0.00 0.17 0.17 99 1016.6
20260506104420 43 96 0.0 0.0 0.00 0.17 0.17 99 1016.7
20260506103918 43 89 0.0 0.0 0.00 0.17 0.17 99 1016.6
20260506103415 43 79 0.0 1.0 0.00 0.17 0.17 99 1016.5
20260506102912 43 89 0.0 2.0 0.00 0.17 0.17 99 1016.6
20260506102410 43 101 0.0 0.0 0.00 0.17 0.17 99 1016.5
20260506101907 43 93 0.0 0.0 0.00 0.17 0.17 98 1016.3
20260506101403 43 91 0.0 0.0 0.00 0.17 0.17 98 1016.3
20260506100900 43 102 0.0 0.0 0.00 0.17 0.17 98 1016.5
20260506100359 43 100 0.0 0.0 0.00 0.17 0.17 98 1016.6
20260506095856 43 88 0.0 0.0 0.00 0.17 0.17 98 1016.4
20260506095355 43 62 0.0 0.0 0.00 0.17 0.17 98 1016.2
20260506094850 43 59 0.0 0.0 0.00 0.17 0.17 98 1016.2
20260506094349 43 98 0.0 0.0 0.07 0.17 0.17 98 1016.6
20260506093847 43 90 0.0 0.0 0.07 0.17 0.17 98 1016.4
20260506093344 43 120 0.0 0.0 0.00 0.16 0.16 98 1016.2
20260506092842 43 119 0.0 0.0 0.05 0.16 0.16 98 1016.4
20260506092340 43 148 0.0 0.0 0.05 0.16 0.16 98 1016.5
20260506091836 43 154 0.0 0.0 0.07 0.15 0.15 98 1016.4
20260506091334 43 159 0.0 0.0 0.12 0.15 0.15 98 1016.5
20260506090831 43 171 0.0 0.0 0.05 0.14 0.14 98 1016.6
20260506090328 43 175 0.0 0.0 0.07 0.13 0.13 98 1016.5
20260506085825 43 196 0.0 0.0 0.00 0.12 0.12 98 1016.4
20260506085321 43 220 0.0 0.0 0.05 0.12 0.12 98 1016.4
20260506084818 43 247 0.0 0.0 0.12 0.12 0.12 98 1016.6
20260506084315 44 273 0.0 0.0 0.07 0.11 0.11 98 1016.5
20260506083811 44 286 0.0 0.0 0.00 0.10 0.10 98 1016.5
20260506083309 44 292 0.0 0.0 0.05 0.10 0.10 97 1016.3
20260506082806 44 287 0.0 0.0 0.05 0.10 0.10 97 1016.8
20260506082304 44 257 0.0 0.0 0.07 0.09 0.09 97 1016.6
20260506081759 44 188 0.0 0.0 0.07 0.09 0.09 97 1016.1
20260506081257 44 224 0.0 0.0 0.05 0.08 0.08 97 1016.3
20260506080755 43 184 0.0 0.0 0.05 0.08 0.08 97 1016.0
20260506080251 43 190 0.0 0.0 0.00 0.07 0.07 97 1016.1
20260506073235 44 266 0.0 1.0 0.00 0.06 0.06 97 1016.9
20260506072731 44 284 0.0 0.0 0.07 0.06 0.06 97 1017.2
20260506072229 44 292 0.0 0.0 0.07 0.06 0.06 96 1017.4
20260506071727 44 309 0.0 0.0 0.05 0.05 0.05 96 1017.4
20260506071224 44 330 0.0 0.0 0.12 0.05 0.05 96 1017.4
20260506070721 44 4 0.0 0.0 0.07 0.04 0.04 96 1017.4
20260506070218 44 26 0.0 1.0 0.00 0.03 0.03 96 1017.5
20260506062155 44 110 0.0 0.0 0.00 0.03 0.03 95 1016.3
20260506061651 44 94 0.0 2.0 0.00 0.03 0.03 94 1016.0
20260506061148 44 113 0.0 0.0 0.00 0.03 0.03 94 1016.1
20260506060647 44 113 0.0 1.0 0.00 0.03 0.03 94 1016.0
20260506060143 44 112 0.0 0.0 0.00 0.03 0.03 93 1016.3
20260506051115 44 102 0.0 0.0 0.00 0.00 0.00 91 1015.8
20260506050614 44 102 0.0 0.0 0.00 0.00 0.00 91 1015.6
20260506050111 44 101 0.0 0.0 0.00 0.00 0.00 91 1015.2
20260506045104 44 97 1.0 1.0 0.00 0.00 0.00 90 1015.2
20260506044602 44 95 0.0 0.0 0.00 0.00 0.00 90 1015.0
20260506044058 44 84 0.0 2.0 0.00 0.00 0.00 90 1015.4
20260506043556 44 93 1.0 1.0 0.00 0.00 0.00 90 1015.6
20260506043054 44 91 0.0 0.0 0.00 0.00 0.00 89 1014.9
20260506042553 44 88 0.0 0.0 0.00 0.00 0.00 89 1015.1
20260506042050 44 68 0.0 2.0 0.00 0.00 0.00 89 1014.8
20260506041549 44 72 0.0 2.0 0.00 0.00 0.00 89 1014.7
20260506041045 44 82 0.0 2.0 0.00 0.00 0.00 89 1015.0
20260506040543 44 66 1.0 2.0 0.00 0.00 0.00 89 1014.9
20260506040038 44 44 0.0 5.0 0.00 0.00 0.00 89 1015.1
20260506035536 44 95 0.0 3.0 0.00 0.00 0.00 89 1015.0
20260506035033 44 96 0.0 3.0 0.00 0.00 0.00 89 1015.2
20260506034530 44 77 0.0 2.0 0.00 0.00 0.00 89 1015.1
20260506034027 44 91 0.0 2.0 0.00 0.00 0.00 89 1015.2
20260506033524 44 86 0.0 2.0 0.00 0.00 0.00 89 1014.9
20260506033021 44 81 2.0 3.0 0.00 0.00 0.00 89 1014.8
20260506032519 44 59 1.0 3.0 0.00 0.00 0.00 89 1014.9
20260506032015 44 78 1.0 2.0 0.00 0.00 0.00 89 1015.1
20260506031513 44 63 2.0 3.0 0.00 0.00 0.00 88 1015.1
20260506031009 44 79 0.0 2.0 0.00 0.00 0.00 88 1014.9
20260506030508 44 74 0.0 2.0 0.00 0.00 0.00 88 1015.0
20260506030005 44 62 1.0 2.0 0.00 0.00 0.00 88 1014.7
20260506025501 44 59 0.0 0.0 0.00 0.00 0.00 88 1014.9
20260506024957 44 50 0.0 0.0 0.00 0.00 0.00 88 1015.0
20260506024454 44 74 1.0 1.0 0.00 0.00 0.00 87 1015.0
20260506023950 44 71 0.0 1.0 0.00 0.00 0.00 87 1014.6
20260506023447 44 67 0.0 2.0 0.00 0.00 0.00 87 1014.7
20260506022944 44 54 1.0 3.0 0.00 0.00 0.00 87 1014.6
20260506022442 44 47 0.0 3.0 0.00 0.00 0.00 87 1014.5
20260506021940 44 336 1.0 2.0 0.00 0.00 0.00 87 1014.6
20260506021436 44 68 1.0 6.0 0.00 0.00 0.00 87 1014.4
20260506020933 44 23 1.0 5.0 0.00 0.00 0.00 87 1014.0
20260506020431 44 35 0.0 5.0 0.00 0.00 0.00 86 1014.1
20260506015928 44 43 0.0 5.0 0.00 0.00 0.00 86 1014.0
20260506015426 44 61 0.0 6.0 0.00 0.00 0.00 85 1014.3
20260506014922 44 18 1.0 8.0 0.00 0.00 0.00 85 1013.9
20260506014420 44 291 0.0 3.0 0.00 0.00 0.00 84 1014.0
20260506013916 44 62 0.0 5.0 0.00 0.00 0.00 83 1014.2
20260506013414 44 68 1.0 5.0 0.00 0.00 0.00 83 1014.2
20260506012910 44 100 0.0 8.0 0.00 0.00 0.00 82 1014.2
20260506012407 44 48 0.0 3.0 0.00 0.00 0.00 81 1014.3
20260506011904 45 93 1.0 2.0 0.00 0.00 0.00 80 1014.1
20260506011401 45 118 0.0 2.0 0.00 0.00 0.00 79 1014.1
20260506010858 46 53 5.0 7.0 0.00 0.00 0.00 78 1014.0
20260506010356 46 74 0.0 1.0 0.00 0.00 0.00 77 1014.1
20260506005853 47 84 1.0 2.0 0.00 0.00 0.00 77 1014.2
20260506005350 47 33 0.0 1.0 0.00 0.00 0.00 76 1014.3
20260506004845 47 84 0.0 1.0 0.00 0.00 0.00 75 1014.1
20260506004343 47 75 0.0 0.0 0.00 0.00 0.00 74 1013.9
20260506003839 48 55 1.0 2.0 0.00 0.00 0.00 72 1013.9
20260506003335 48 83 0.0 1.0 0.00 0.00 0.00 70 1014.1
20260506002832 48 77 0.0 2.0 0.00 0.00 0.00 69 1013.9
20260506002329 48 78 0.0 1.0 0.00 0.00 0.00 68 1013.9
20260506001824 48 63 0.0 5.0 0.00 0.00 0.00 67 1013.7
20260506001321 49 30 0.0 2.0 0.00 0.00 0.00 67 1013.7
20260506000818 49 35 2.0 3.0 0.00 0.00 0.00 66 1013.5
20260506000316 49 51 0.0 3.0 0.00 0.00 0.00 65 1013.0
20260505235812 49 167 0.0 2.0 0.00 0.00 0.00 64 1013.1
20260505235310 50 50 0.0 5.0 0.00 0.00 0.00 61 1013.0
20260505234807 50 56 3.0 6.0 0.00 0.00 0.00 60 1012.8
20260505234305 50 170 1.0 5.0 0.00 0.00 0.00 61 1012.8
20260505233802 50 57 0.0 0.0 0.00 0.00 0.00 61 1012.7
20260505233259 50 13 2.0 5.0 0.00 0.00 0.00 61 1012.9
20260505232756 50 49 3.0 5.0 0.00 0.00 0.00 61 1012.5
20260505232254 50 60 1.0 6.0 0.00 0.00 0.00 61 1012.6
20260505231750 50 79 1.0 6.0 0.00 0.00 0.00 62 1012.5
20260505231249 50 61 1.0 7.0 0.00 0.00 0.00 61 1012.7
20260505230747 50 59 3.0 6.0 0.00 0.00 0.00 61 1012.5
20260505230243 50 119 3.0 8.0 0.00 0.00 0.00 61 1012.3
20260505225740 50 92 0.0 3.0 0.00 0.00 0.00 64 1012.0
20260505225237 51 45 4.0 8.0 0.00 0.00 0.00 62 1012.4
20260505224732 51 48 4.0 8.0 0.00 0.00 0.00 58 1012.2
20260505224230 52 44 3.0 7.0 0.00 0.00 0.00 57 1012.2
20260505223727 52 47 4.0 6.0 0.00 0.00 0.00 57 1012.4
20260505223224 52 114 6.0 9.0 0.00 0.00 0.00 57 1012.3
20260505222720 53 31 1.0 6.0 0.00 0.00 0.00 57 1012.4
20260505222216 52 49 2.0 6.0 0.00 0.00 0.00 57 1012.2
20260505221713 53 51 5.0 9.0 0.00 0.00 0.00 56 1012.4
20260505221210 53 97 1.0 10.0 0.00 0.00 0.00 58 1012.3
20260505220707 53 26 2.0 9.0 0.00 0.00 0.00 57 1012.0
20260505220205 53 58 1.0 5.0 0.00 0.00 0.00 55 1012.3
20260505215702 53 43 1.0 6.0 0.00 0.00 0.00 55 1012.2
20260505215200 54 65 4.0 8.0 0.00 0.00 0.00 54 1012.0
20260505214657 55 38 3.0 10.0 0.00 0.00 0.00 52 1012.2
20260505214154 54 106 3.0 8.0 0.00 0.00 0.00 52 1012.3
20260505213652 53 50 8.0 10.0 0.00 0.00 0.00 51 1012.5
20260505213149 54 40 3.0 15.0 0.00 0.00 0.00 51 1012.6
20260505212644 54 44 5.0 7.0 0.00 0.00 0.00 50 1012.6
20260505212142 54 73 2.0 9.0 0.00 0.00 0.00 51 1012.6
20260505211639 53 56 6.0 11.0 0.00 0.00 0.00 51 1012.6